Ashland, WI

4:04 AM CDT on April 29, 2017 (GMT -0500)
Kennedy Memorial

Weather History for KASX - August, 2013

Change the Weather History Date:

Saturday, August 17, 2013

  Actual Average Record
Temperature  
Mean Temperature 67 °F -  
Max Temperature 80 °F 78 °F 91 °F (1990)
Min Temperature 54 °F 53 °F 36 °F (1954)
Cooling Degree Days 2    
Growing Degree Days 17 (Base 50)    
Moisture  
Dew Point 56 °F    
Average Humidity 67    
Maximum Humidity 97    
Minimum Humidity 42    
Precipitation  
Precipitation 0.00 in - - ()
Sea Level Pressure  
Sea Level Pressure 30.15 in    
Wind  
Wind Speed 7 mph (SW)    
Max Wind Speed 13 mph    
Max Gust Speed 22 mph    
Visibility 10 miles    
Events      
Averages and records for this station are not official NWS values.
T = Trace of Precipitation, MM = Missing Value Source: NWS Daily Summary

Daily Weather History Graph

Daily Weather History Graph

Search for Another Location

Airport or City:

Trip Planner

Search our weather history database for the weather conditions in past years. The results will help you decide how hot, cold, wet, or windy it might be!

Date:

Astronomy

Aug. 17, 2013 Rise Set
Actual Time 6:04 AM CDT 8:09 PM CDT
Civil Twilight 5:32 AM CDT 8:42 PM CDT
Nautical Twilight 4:51 AM CDT 9:22 PM CDT
Astronomical Twilight 4:06 AM CDT 10:07 PM CDT
Moon 5:31 PM CDT (8/17) 2:01 AM CDT (8/17)
Length of Visible Light 15h 10m
Length of Day
14h 04m
Waxing Gibbous, 84% of the Moon is Illuminated
Aug 17
Waxing Gibbous
Aug 20
Full
Aug 28
Last Quarter
Sep 5
New
Sep 12
First Quarter

Hourly Weather History & Observations

Time (CDT) Temp. Heat Index Dew Point Humidity Pressure Visibility Wind Dir Wind Speed Gust Speed Precip Events Conditions
12:53 AM 62.1 °F - 55.9 °F 80% 30.17 in 10.0 mi WSW 6.9 mph - N/A   Clear
1:53 AM 60.1 °F - 55.0 °F 83% 30.17 in 10.0 mi WSW 6.9 mph - N/A   Clear
2:53 AM 60.1 °F - 55.0 °F 83% 30.17 in 10.0 mi WSW 5.8 mph - N/A   Clear
3:53 AM 60.1 °F - 55.0 °F 83% 30.18 in 10.0 mi WSW 5.8 mph - N/A   Clear
4:53 AM 55.9 °F - 53.1 °F 90% 30.19 in 10.0 mi SSW 4.6 mph - N/A   Clear
5:53 AM 54.0 °F - 53.1 °F 97% 30.20 in 10.0 mi SSW 3.5 mph - N/A   Clear
6:53 AM 55.0 °F - 53.1 °F 93% 30.20 in 8.0 mi SW 3.5 mph - N/A   Clear
7:53 AM 64.0 °F - 57.0 °F 78% 30.21 in 10.0 mi SW 4.6 mph - N/A   Clear
8:53 AM 69.1 °F - 57.9 °F 68% 30.21 in 10.0 mi WSW 6.9 mph - N/A   Clear
9:53 AM 72.0 °F - 57.9 °F 61% 30.20 in 10.0 mi SW 9.2 mph - N/A   Clear
10:53 AM 75.0 °F - 57.0 °F 53% 30.20 in 10.0 mi SW 9.2 mph - N/A   Clear
11:53 AM 77.0 °F - 55.9 °F 48% 30.19 in 10.0 mi SW 12.7 mph - N/A   Partly Cloudy
12:53 PM 78.1 °F - 55.0 °F 45% 30.17 in 10.0 mi WSW 9.2 mph 21.9 mph N/A   Clear
1:53 PM 80.1 °F 80.2 °F 55.9 °F 43% 30.15 in 10.0 mi SSW 10.4 mph 20.7 mph N/A   Clear
2:53 PM 80.1 °F 80.1 °F 55.0 °F 42% 30.13 in 10.0 mi SSW 12.7 mph 21.9 mph N/A   Clear
3:53 PM 80.1 °F 80.1 °F 55.0 °F 42% 30.12 in 10.0 mi SW 12.7 mph 21.9 mph N/A   Clear
4:53 PM 80.1 °F 80.4 °F 57.0 °F 45% 30.11 in 10.0 mi SW 9.2 mph 18.4 mph N/A   Clear
5:53 PM 78.1 °F - 55.9 °F 46% 30.11 in 10.0 mi SW 11.5 mph 17.3 mph N/A   Clear
6:53 PM 75.9 °F - 57.0 °F 52% 30.10 in 10.0 mi SSW 8.1 mph - N/A   Clear
7:53 PM 68.0 °F - 57.0 °F 68% 30.10 in 10.0 mi SSW 4.6 mph - N/A   Clear
8:53 PM 64.9 °F - 55.9 °F 73% 30.10 in 10.0 mi SSW 6.9 mph - N/A   Clear
9:53 PM 63.0 °F - 55.0 °F 75% 30.11 in 10.0 mi SSW 5.8 mph - N/A   Clear
10:53 PM 59.0 °F - 54.0 °F 83% 30.12 in 10.0 mi SSW 4.6 mph - N/A   Clear
11:53 PM 60.1 °F - 54.0 °F 80% 30.11 in 10.0 mi SSW 6.9 mph - N/A   Clear